Flag for Germany Weather past 2 weeks in Bad Homburg, Hesse, Germany

Now
55 °F

Fog.


Feels Like: 55 °F
Forecast: 39 / 53 °F
Wind: 1 mph from Southeast

Location: Frankfurt / M-Flughafen

Current Time: Apr 27, 2015 at 6:46:45 AM

Latest Report: Apr 27, 2015 at 4:00 AM


Visibility: 7 mi

Pressure: 29.59 "Hg

Humidity: 100%

Dew point: 55 °F

Location of Bad HomburgLocation

Historic Weather in Bad Homburg — Graph

°F

Bad Homburg temperature yesterday

Maximum temperature yesterday: 69 °F (at 6:00 PM)
Minimum temperature yesterday: 51 °F (at 2:00 AM)
Average temperature yesterday: 60 °F

Past Weeks' High & Low Weather Summary

 TemperatureHumidityPressure
High77 °F (Apr 15, 6:00 PM)100% (Apr 26, 3:00 AM)30.47 "Hg (Apr 26, 3:00 AM)
Low35 °F (Apr 23, 6:00 AM)20% (Apr 21, 5:00 PM)29.59 "Hg (Apr 27, 4:00 AM)
Average55 °F56%30.14 "Hg
* Reported Apr 12 4:00 AM — Apr 27 4:00 AM, Bad Homburg, Weather by CustomWeather, © 2015

Note: Actual official high and low records may vary slightly from our data, if they occured in-between our weather recording intervals... More about our weather records

Advertising

Bad Homburg weather history for previous 24 hours

 ConditionsComfort  
Time TempWeatherWind HumidityBarometerVisibility
4:00 AM
Mon, Apr 27
55 °FFog.1 mph100%29.59 "Hg7 mi
3:00 AM57 °FLow clouds.5 mph99%29.59 "Hg9 mi
2:00 AM57 °FOvercast.2 mph100%29.60 "Hg22 mi
1:00 AM58 °FSprinkles. Overcast.2 mph98%29.61 "Hg19 mi
12:00 AM57 °FOvercast.1 mph99%29.64 "Hg9 mi
10:00 PM
Sun, Apr 26
63 °FOvercast.2 mph67%29.64 "Hg34 mi
9:00 PM64 °FOvercast.2 mph65%29.64 "Hg37 mi
8:00 PM66 °FOvercast.2 mph58%29.64 "Hg40 mi
7:00 PM67 °FPartly sunny.2 mph56%29.65 "Hg40 mi
6:00 PM69 °FPartly sunny.2 mph44%29.66 "Hg40 mi
4:00 PM69 °FPartly sunny.7 mph46%29.70 "Hg37 mi
3:00 PM69 °FThunderstorms. Partly sunny.3 mph49%29.72 "Hg37 mi
2:00 PM67 °FThunderstorms. Overcast.6 mph56%29.74 "Hg25 mi
1:00 PM65 °FPartly sunny.7 mph62%29.76 "Hg22 mi
12:00 PM62 °FOvercast.7 mph66%29.78 "Hg15 mi
10:00 AM60 °FOvercast.5 mph77%29.80 "Hg12 mi
9:00 AM57 °FLow clouds.6 mph90%29.81 "Hg7 mi
8:00 AM55 °FFog.3 mph100%29.81 "Hg4 mi
7:00 AM54 °FFog.5 mph100%29.81 "Hg4 mi
6:00 AM53 °FFog.3 mph100%29.81 "Hg4 mi
Weather by CustomWeather, © 2015

See weather overviewHow to use our weather pages